sat.trackr.live / text

‹ back to catalog

STARLINK-34564

NORAD 64852 · 2025-152L

PAYLOAD ACTIVE UNKNOWN

§ Identity

Operator
Country
US
Launch date
2025-07-19
Launch site
AFWTR
Launch vehicle
Mass (kg)
RCS (m²)

Purposes: comms

External: N2YO · Heavens-Above · Gunter

§ Orbital elements

Epoch: 2026-05-25T02:12:28.909728Z

Period
95.64 min
Inclination
97.4513°
Eccentricity
0.0001874
Mean motion
15.05658757 rev/d
Perigee alt
548.2 km
Apogee alt
550.8 km
Semi-major
6,927.6 km
B*
2.1897e-4
RAAN
0.4330°
Arg perigee
125.1649°
Mean anomaly
234.9754°
Rev number
4,691

§ Raw data

STARLINK-345641 64852U 25152L   26145.09200127  .00003103  00000+0  21897-3 0  99952 64852  97.4513   0.4330 0001874 125.1649 234.9754 15.05658757 46917

JSON: /api/v1/satellites/64852 · /tle

For live sub-satellite position, see the globe view (requires WebGL).

§ Visibility from observer

Set your observer location to see the next 7 days of passes ≥ 10°. The values pass through the URL so the page stays shareable.

No JS? Fill the form by hand. The geolocation button needs JavaScript.